"Pseudo-MPEC" for A118n8s = A118l9Q = A1189Fm

Created 2024 Jul 11 22:31:05 UT using Find_Orb

Click here for an explanation of pseudo-MPECs

The A1 value shown below would be equivalent to an area/mass ratio of 93.7 +/- 0.2 m^2/kg. That's a little high, indicating a lightweight bit of insulated plastic (they do make the stuff that light) and/or an unusually broadside angle to the sun. The tangential forces are less than 0.5% of the radial force, which does make you think it's probably facing the sun straight on.

 
 Astrometry: 
     A116A0b* C2024 05 12.17594414 36 05.635-31 28 11.50   ~5CLo 17.03oVNEOCPW68
     A116A0b  C2024 05 12.18158114 37 46.946-31 28 05.38   ~5CLo 16.95oVNEOCPW68
     A116A0b  C2024 05 12.21254114 46 39.694-31 22 57.00   ~5CLo 17.07oVNEOCPW68
     A116A0b  C2024 05 12.25364914 57 57.967-31 05 22.96   ~5CLo 17.06oVNEOCPW68
     A116A0b  C2024 05 12.25681514 58 49.330-31 03 33.55   ~5CLo 17.27oVNEOCPW68
     A116A0b  C2024 05 12.26233715 00 17.393-31 00 16.88   ~5CLo 17.25oVNEOCPW68
     A1189Fm* C2024 07 05PSEh0dV6e,goDaX+J'XsHiN'T5_(dj5/XyMh69t#br@$B!6x/Fa]M22
     A1189Fm  C2024 07 05(oLgwjW3yifLX?,Y'%Q!]s#squ\r\sQEg(5yohh\n84-rofIK#w(M22
     A1189Fm  C2024 07 05vH#X@9QtDPLe;B-]$!8iEh9eldhil7IP2b[,,1H2P=T]!X89O\8=M22
     A118l9Q* C2024 07 11u#/9ER_cj.mpNbV91hiNw)Urv^T4V)kevjr[-bi9NZIgk80t5j#DT08
     A118l9Q  C2024 07 11cT]qh9!4XwXP3flfdpoE?6j1!dkBETv\Lu'R-Xe^kAstrometryQT08
     A118l9Q  C2024 07 11*Hqo@n]W^oX#oIEnXAP^_%?l3wWKCbUkY$/LF11;C4el3Y$TdbmiT08
     A118l9Q  C2024 07 11'_VYp'X7mloVFBW-u]F.%g/JIIZ(?b^RS+xaDDcU+[UUh5Z*o:?%T08
     A118l9Q  C2024 07 11=a\redacted;EhIPfKk0J.eUDt6b*$QdcG@W@clickEtt,0j+y95T08
     A118n8s* C2024 07 11eePi5oDYDZuN9MlNgYn2SiscY$M:\l@2[/[%B%:--ET/sABg-u08T08
     A118n8s  C2024 07 11j_Uqykcs#D]8#%r=CYJh33aTU)*9Bw]',TZw=.aklepd\:Da\1NxT08
     A118n8s  C2024 07 11@*'\hereh@$e$`qXtnv(H7soVjY9^WT@i(r/fyEU@#txcFV8n,@=T08
     A118n8s  C2024 07 11D:2^EmBW!*5/JhTY.WT`uT=3H#-e!!QV_QI[b%Rbcgq3U%G6!$e/T08
     A118n8s  C2024 07 11uRWy`waNV!YZ\A94)UT5fore3\]$7;iF7B$jexplanation\!jw)T08

Station data:
(M22) ATLAS South Africa, Sutherland  (S32.380156 E20.810590)  South Africa.
   Observers L. Denneau, R. Siverd, J. Tonry, H. Weiland. Measurers L.
   Denneau, N. Erasmus, A. Fitzsimmons, A. Lawrence, J. Robinson, R. Siverd,
   J. Tonry, H. Weiland. 0.5-m reflector + CCD.
(T08) ATLAS-MLO, Mauna Loa  (N19.536150 W155.576050)  US/Hawaii.  Observers
   L. Denneau, A. Heinze, H. Weiland, J. Tonry, H. Flewelling, A.
   Fitzsimmons, D. Young, B. Stalder. Measurers L. Denneau, A. Heinze, J.
   Tonry. 0.5-m f/2.0 Schmidt + CCD.
(W68) ATLAS Chile, Rio Hurtado  (S30.471010 W70.764980)  Chile.  Observers L.
   Denneau, R. Siverd, J. Tonry, H. Weiland. Measurers L. Denneau, N.
   Erasmus, A. Fitzsimmons, A. Lawrence, J. Robinson, R. Siverd, J. Tonry, H.
   Weiland. 0.5-m reflector + CCD.

Orbital elements:  A118n8s = A118l9Q = A1189Fm
   Perigee 2024 Jul 11.813081 +/- 0.000804 TT = 19:30:50.2 (JD 2460503.313081)
A1: (2155.9 +/- 4.7)e-8   A2: (-5.38 +/- 2.79)e-8
A3: (-7.19 +/- 1.44)e-8 AU/day^2 [1/r^2]
Epoch 2024 Jul 12.0 TT = JDT 2460503.5                           Find_Orb
M  60.318088461 +/- 0.26            (J2000 equator)
n 322.697087147 +/- 0.00778         Peri.  162.370748 +/- 0.037
a 45436.70289 +/- 0.73              Node   303.314338 +/- 0.0046
e   0.82005241 +/- 0.000663         Incl.   28.508388 +/- 0.018
P1606.430m/1.116d          H 32.93  G  0.15   U  9.5
q 8176.224831 +/- 30.2    Q 82697.18096 +/- 29.8
From 19 observations 2024 May 12-July 11; mean residual 20".753
Residuals in arcseconds: 
240512 W68 24.0- 6.79+    240705 M22 26.6- 22.2-    240711 T08 23.8+ 14.6+
240512 W68 18.6- 5.59+    240705 M22 36.3- 32.2-    240711 T08 19.9+ 11.7+
240512 W68 36.9- .055+    240711 T08 1.23- 3.12+    240711 T08 22.3+ 13.6+
240512 W68 34.5+ 1.82-    240711 T08 5.69+ 7.86+    240711 T08 23.7+ 14.3+
240512 W68 42.9+ .919-    240711 T08 6.10+ 6.67+    240711 T08 22.9+ 14.7+
240512 W68 41.3+ 2.20-    240711 T08 2.02+ 3.68+
240705 M22 32.7- 28.3-    240711 T08 7.42+ 8.51+

Ephemerides (geocentric):
Date (UTC) HH:MM   RA             Dec           delta  r     elong  mag " sig PA
---- -----------  ------------   ------------  ------ ------ -----  --- --------
2024 07 11 22:30  16 51 13.261   -22 44 28.90   43716 1.0168 144.4 16.8  440  75
2024 07 11 22:40  16 56 44.194   -22 19 43.27   45204 1.0168 145.6 16.8  409  74
2024 07 11 22:50  17 01 52.582   -21 55 53.03   46645 1.0169 146.8 16.8  381  74
2024 07 11 23:00  17 06 41.199   -21 32 54.62   48041 1.0169 147.8 16.9  357  73
2024 07 11 23:10  17 11 12.367   -21 10 44.59   49395 1.0169 148.8 16.9  336  73
2024 07 11 23:20  17 15 28.046   -20 49 19.69   50707 1.0169 149.7 16.9  317  73
2024 07 11 23:30  17 19 29.901   -20 28 36.87   51980 1.0169 150.6 17.0  301  73
2024 07 11 23:40  17 23 19.361   -20 08 33.28   53215 1.0169 151.4 17.0  286  72
2024 07 11 23:50  17 26 57.654   -19 49 06.28   54414 1.0169 152.2 17.0  272  72
2024 07 12 00:00  17 30 25.850   -19 30 13.45   55577 1.0169 153.0 17.0  260  72
2024 07 12 00:10  17 33 44.878   -19 11 52.53   56707 1.0169 153.7 17.1  249  72
2024 07 12 00:20  17 36 55.557   -18 54 01.45   57804 1.0169 154.3 17.1  240  72
2024 07 12 00:30  17 39 58.604   -18 36 38.30   58869 1.0169 155.0 17.1  231  71
2024 07 12 00:40  17 42 54.659   -18 19 41.30   59904 1.0170 155.6 17.1  223  71
2024 07 12 00:50  17 45 44.287   -18 03 08.83   60908 1.0170 156.2 17.1  215  71
2024 07 12 01:00  17 48 27.993   -17 46 59.37   61884 1.0170 156.7 17.2  208  71
2024 07 12 01:10  17 51 06.232   -17 31 11.53   62831 1.0170 157.3 17.2  202  71
2024 07 12 01:20  17 53 39.411   -17 15 44.00   63750 1.0170 157.8 17.2  197  71
2024 07 12 01:30  17 56 07.897   -17 00 35.60   64643 1.0170 158.3 17.2  191  70
2024 07 12 01:40  17 58 32.023   -16 45 45.18   65509 1.0170 158.7 17.2  187  70
2024 07 12 01:50  18 00 52.093   -16 31 11.72   66349 1.0170 159.2 17.2  182  70
2024 07 12 02:00  18 03 08.380   -16 16 54.24   67165 1.0170 159.6 17.2  178  70
2024 07 12 02:10  18 05 21.137   -16 02 51.84   67956 1.0170 160.0 17.3  175  70
2024 07 12 02:20  18 07 30.593   -15 49 03.65   68722 1.0170 160.4 17.3  171  70
2024 07 12 02:30  18 09 36.961   -15 35 28.89   69465 1.0170 160.8 17.3  168  70
2024 07 12 02:40  18 11 40.434   -15 22 06.80   70185 1.0170 161.2 17.3  165  69
2024 07 12 02:50  18 13 41.192   -15 08 56.69   70882 1.0170 161.5 17.3  163  69
2024 07 12 03:00  18 15 39.400   -14 55 57.89   71557 1.0170 161.9 17.3  160  69
2024 07 12 03:10  18 17 35.212   -14 43 09.77   72209 1.0170 162.2 17.3  158  69
2024 07 12 03:20  18 19 28.772   -14 30 31.76   72840 1.0170 162.5 17.3  156  69
2024 07 12 03:30  18 21 20.211   -14 18 03.28   73450 1.0171 162.8 17.3  154  69
2024 07 12 03:40  18 23 09.653   -14 05 43.82   74038 1.0171 163.1 17.3  153  69
2024 07 12 03:50  18 24 57.214   -13 53 32.87   74606 1.0171 163.3 17.3  151  68
2024 07 12 04:00  18 26 43.002   -13 41 29.95   75153 1.0171 163.6 17.4  150  68
2024 07 12 04:10  18 28 27.119   -13 29 34.62   75680 1.0171 163.8 17.4  149  68
2024 07 12 04:20  18 30 09.659   -13 17 46.43   76187 1.0171 164.0 17.4  148  68
2024 07 12 04:30  18 31 50.713   -13 06 04.97   76674 1.0171 164.3 17.4  147  68
2024 07 12 04:40  18 33 30.365   -12 54 29.86   77142 1.0171 164.5 17.4  146  68
2024 07 12 04:50  18 35 08.695   -12 43 00.70   77590 1.0171 164.7 17.4  145  68
2024 07 12 05:00  18 36 45.779   -12 31 37.14   78020 1.0171 164.8 17.4  145  67
2024 07 12 05:10  18 38 21.689   -12 20 18.84   78430 1.0171 165.0 17.4  144  67
2024 07 12 05:20  18 39 56.491   -12 09 05.44   78822 1.0171 165.2 17.4  144  67
2024 07 12 05:30  18 41 30.253   -11 57 56.63   79195 1.0171 165.3 17.4  143  67
2024 07 12 05:40  18 43 03.034   -11 46 52.09   79549 1.0171 165.4 17.4  143  67
2024 07 12 05:50  18 44 34.894   -11 35 51.52   79886 1.0171 165.6 17.4  143  67
2024 07 12 06:00  18 46 05.890   -11 24 54.63   80204 1.0171 165.7 17.4  143  67
2024 07 12 06:10  18 47 36.076   -11 14 01.13   80504 1.0171 165.8 17.4  143  66
2024 07 12 06:20  18 49 05.504   -11 03 10.75   80787 1.0171 165.9 17.4  143  66
2024 07 12 06:30  18 50 34.223   -10 52 23.20   81051 1.0171 165.9 17.4  143  66
2024 07 12 06:40  18 52 02.282   -10 41 38.23   81298 1.0171 166.0 17.4  143  66
2024 07 12 06:50  18 53 29.727   -10 30 55.58   81527 1.0171 166.1 17.4  143  66
2024 07 12 07:00  18 54 56.604   -10 20 14.99   81739 1.0171 166.1 17.5  144  66
2024 07 12 07:10  18 56 22.956   -10 09 36.21   81934 1.0171 166.1 17.5  144  66
2024 07 12 07:20  18 57 48.825   -09 58 59.01   82111 1.0171 166.2 17.5  145  65
2024 07 12 07:30  18 59 14.253   -09 48 23.13   82271 1.0171 166.2 17.5  145  65
2024 07 12 07:40  19 00 39.280   -09 37 48.34   82413 1.0171 166.2 17.5  146  65
2024 07 12 07:50  19 02 03.946   -09 27 14.40   82539 1.0171 166.2 17.5  146  65
2024 07 12 08:00  19 03 28.288   -09 16 41.07   82647 1.0171 166.1 17.5  147  65
2024 07 12 08:10  19 04 52.346   -09 06 08.14   82738 1.0171 166.1 17.5  148  65
2024 07 12 08:20  19 06 16.155   -08 55 35.35   82812 1.0171 166.1 17.5  149  65
2024 07 12 08:30  19 07 39.753   -08 45 02.48   82870 1.0171 166.0 17.5  150  65
2024 07 12 08:40  19 09 03.177   -08 34 29.31   82910 1.0171 166.0 17.5  151  64
2024 07 12 08:50  19 10 26.461   -08 23 55.59   82933 1.0171 165.9 17.5  152  64
2024 07 12 09:00  19 11 49.642   -08 13 21.09   82940 1.0171 165.8 17.5  153  64
2024 07 12 09:10  19 13 12.755   -08 02 45.59   82929 1.0171 165.7 17.5  154  64
2024 07 12 09:20  19 14 35.836   -07 52 08.85   82901 1.0171 165.6 17.5  155  64
2024 07 12 09:30  19 15 58.919   -07 41 30.62   82857 1.0171 165.5 17.5  157  64
2024 07 12 09:40  19 17 22.041   -07 30 50.66   82795 1.0171 165.4 17.5  158  64
2024 07 12 09:50  19 18 45.237   -07 20 08.75   82717 1.0171 165.3 17.5  160  64
2024 07 12 10:00  19 20 08.542   -07 09 24.61   82621 1.0171 165.1 17.5  161  64
